User: anonymous   Login
Location: Unspecified
(0.0000°N, 0.0000°E)
Time: 23:23:32
(UTC+00:00)
Language:

TURKSAT 3U - Orbit

View from above orbital plane
View from above orbital plane
View from above satellite
View from above satellite

Ground track
Ground track

The orbit data is extracted from the following two-line orbital elements,

1 39152U 13018C   18051.46997776  .00000216  00000-0  35165-4 0  9996
2 39152  97.9341 141.1326 0015854 321.0866  38.9204 14.80450062260309
Epoch (UTC): 20 February 2018 11:16:46
Eccentricity: 0.0015854
inclination: 97.9341°
perigee height: 617 km
apogee height: 639 km
right ascension of ascending node: 141.1326°
argument of perigee: 321.0866°
revolutions per day: 14.80450062
mean anomaly at epoch: 38.9204°
orbit number at epoch: 26030

The dashed part of the orbit path shows where the satellite is in the earth's shadow,  

DLR